CAPE
327 440 1347 1151 1126 942 1001 1089 1303 1103 817 571 515 423 658 1162 1430 1713 1753 1675 1680 1840 1802 1930 1781 1965 2091 2316 1888 1541 1746 1983 1767 1785 1611 1599 1596 1908 2150 2207 2065 1813 1725
399 852 1020 1197 1083 965 895 1107 1248 1246 1114 967 899 1082 1328 1552 1564 1575 1503 1419 1443 1665 2008 2168 1975 2073 1920 2045 2013 1581 1465 1407 1374 1443 1466 2030 2162 2195 2396 2124 2078 1617 1543
241 829 1261 1500 1419 1084 962 975 1093 1079 1136 1097 1059 1137 1222 1367 1488 1376 1393 1412 1390 1436 1661 1975 1810 1738 1508 1753 1941 1866 1504 1366 1298 1623 1097 1285 1459 1434 1379 1122 1311 1141 1268
257 947 1188 1371 1674 1520 1229 983 931 1032 1004 1099 1021 1033 1018 1119 1316 1335 1258 1158 1325 1454 1549 1910 1583 1696 1217 1462 1382 1656 1479 1592 1369 1955 1753 1782 2158 2354 2109 2312 2586 2121 1169
456 987 1253 1429 1572 1779 1741 1305 904 951 1089 1093 1082 1087 1075 1160 1185 1235 1018 979 1443 1649 1711 1817 1574 1422 755 985 1064 891 1002 890 1088 1471 1055 1319 1738 2273 2269 2507 2572 2421 2632
646 1062 1545 1644 1665 1714 1682 1570 1425 1633 1084 953 1060 1036 1072 1119 1427 1175 1021 1183 1346 1577 1807 1527 1525 1412 1088 995 697 892 944 783 733 282 467 776 1076 2048 2089 2071 2317 2006 2207
777 1100 1523 1580 1713 1736 1684 1590 1520 1451 1400 1314 1101 1234 1274 1125 1245 1117 1018 1449 1436 1744 1676 1449 1453 1339 909 688 820 779 786 583 394 393 123 137 481 1797 1899 1504 1702 1904 2053
629 1147 1318 1431 1505 1521 1416 1408 1283 1219 1228 1351 1241 1188 1185 1119 1125 1121 1206 1453 1481 1754 1535 1510 1218 1049 935 771 534 764 839 301 379 180 166 75 36 832 1853 1549 1245 1152 1385
802 883 1081 1299 1363 1607 1691 1699 1580 1196 1550 1504 1511 1469 1498 1502 1683 1539 1593 1675 1562 1532 1734 1186 1045 809 625 576 486 617 598 675 217 208 58 1 0 387 1035 1910 2052 1643 1267
839 632 832 1102 1358 1497 1462 1595 1469 1489 1418 1579 1677 1321 1594 1615 1557 1625 1631 1786 1645 1706 1390 1413 776 837 736 579 811 1180 1062 695 288 302 187 25 41 193 429 748 2004 2066 1953
451 425 765 878 1176 1314 1224 1609 1428 1459 1443 1572 1384 1469 1507 1358 1423 1751 1423 1569 1798 1687 1068 485 771 368 184 185 336 630 591 483 354 214 197 171 56 42 120 658 1608 1694 1930
54 131 264 492 773 860 1031 1247 1185 1169 1334 1401 1102 1259 1197 949 950 1189 1134 1354 1236 551 540 852 413 258 114 55 50 120 225 427 378 367 211 333 543 419 726 1825 1918 1800 1604
5 77 133 302 585 575 782 1073 899 947 1002 924 876 948 860 565 674 1017 965 1162 723 397 313 239 82 217 2 0 0 0 139 535 264 290 362 146 307 791 1278 1934 1675 1663 1670
0 6 32 127 205 381 717 848 606 573 614 369 576 541 606 743 756 787 820 812 321 132 357 150 176 170 0 0 0 73 113 4 343 120 65 366 660 962 1171 1696 1789 1671 1551
0 0 9 61 67 288 670 462 368 274 206 82 251 329 391 542 594 572 779 770 512 186 217 192 245 103 0 0 0 0 244 191 69 388 278 137 755 980 869 1523 1802 1445 1128
0 0 20 76 75 470 733 177 192 223 140 197 306 387 367 488 457 90 155 523 502 184 133 161 19 54 3 0 11 0 161 460 513 435 210 204 660 911 469 932 1607 1554 1013
21 155 171 421 264 575 933 317 438 379 341 364 382 333 421 246 9 9 0 25 74 45 44 58 27 73 11 36 23 79 265 435 332 389 325 289 163 874 469 660 683 754 1045
138 263 466 749 492 695 970 647 575 731 588 560 356 385 306 213 0 15 62 373 401 27 116 83 40 42 85 128 104 151 88 6 23 492 552 479 217 308 421 717 824 896 1007
76 248 709 766 428 751 827 788 642 756 486 302 302 338 277 61 0 13 65 384 472 323 242 209 71 1 258 229 139 145 225 385 117 232 719 596 158 142 138 234 462 721 995
10 209 631 797 657 588 665 591 485 506 428 235 242 268 235 156 0 108 128 276 459 330 417 269 190 58 359 258 343 357 288 378 423 41 125 297 267 540 574 575 390 759 827
30 69 468 784 866 657 450 444 367 386 298 321 192 237 47 0 0 105 158 151 430 329 105 347 445 409 285 147 48 0 142 138 275 35 12 300 497 295 432 737 847 725 645
664 321 309 636 838 593 448 387 409 372 382 359 272 209 291 42 0 77 473 228 361 215 147 264 447 550 242 97 242 11 0 0 0 29 0 61 218 255 508 645 790 834 555
792 776 579 647 836 657 511 398 341 366 468 329 337 311 259 97 1 0 175 233 197 379 114 144 738 289 249 312 192 109 21 37 16 0 11 61 229 267 477 614 936 937 756
706 710 623 701 762 704 639 474 395 298 308 411 341 329 410 224 6 152 196 264 170 223 396 595 615 288 169 140 377 350 212 116 98 97 91 67 80 195 334 470 433 367 736
663 727 639 562 616 661 715 585 441 297 228 261 359 291 387 437 242 156 554 575 533 212 247 522 263 140 306 210 33 413 269 127 130 79 0 0 7 118 120 326 464 230 654
655 681 658 538 610 582 622 592 500 285 206 190 232 249 244 378 329 231 242 330 423 714 278 207 29 16 0 82 164 111 148 169 162 175 31 23 22 144 233 278 319 342 416
CIN
-60 -52 -1 -1 0 -5 -8 -10 -6 -17 -29 -46 -44 -47 -41 -32 -30 -15 -7 -17 -23 -9 -8 -3 -4 -1 0 0 0 -10 -16 -2 -8 -1 -2 -10 -11 0 0 0 0 -1 -3
-108 -26 -16 -9 -15 -12 -15 -11 -2 0 -8 -20 -21 -18 -14 -13 -23 -23 -19 -26 -29 -17 -4 0 0 0 -1 0 0 -12 -12 -18 -16 -11 -16 -1 0 0 0 0 0 -2 -2
-142 -23 -3 0 -7 -19 -16 -18 -7 -4 0 -4 -17 -12 -11 -14 -26 -35 -30 -23 -26 -25 -11 0 0 -1 -7 -2 0 0 -5 -7 -17 -7 -33 -28 -14 -11 -12 -37 -26 -27 -20
-145 -19 -4 -2 -1 -1 -11 -24 -15 -9 -5 -5 -20 -14 -27 -31 -30 -34 -36 -34 -24 -20 -15 0 -7 -1 -6 -5 -3 -1 -5 0 -3 0 -4 -2 -1 0 0 0 0 -2 -34
-89 -24 -2 -1 -1 0 0 -7 -23 -13 -4 -6 -14 -12 -23 -28 -36 -38 -48 -41 -10 -1 0 0 -4 -9 -34 -15 -10 -17 -11 -7 -7 -4 -21 -7 -3 0 0 0 0 0 0
-63 -20 0 0 0 0 0 0 -1 0 -6 -16 -14 -13 -14 -23 -16 -34 -37 -16 -6 -2 0 0 0 -2 -7 -10 -20 -16 -21 -18 -7 -64 -52 -41 -32 0 0 0 0 0 0
-45 -12 0 -1 0 0 0 0 0 0 0 -1 -9 -3 -1 -7 -11 -34 -35 -5 -3 0 0 -1 -3 -8 -10 -9 -6 -9 -15 -15 -25 -44 -98 -108 -54 -5 0 -11 -1 0 0
-86 -25 -8 -1 0 0 0 0 0 -1 -5 0 0 -2 0 -4 -14 -24 -21 -5 -2 0 -4 -1 -5 -5 -11 -10 -8 -7 -7 -19 -28 -82 -103 -131 -128 -43 -2 -9 -11 -26 -24
-59 -52 -24 -2 -1 0 0 0 0 -1 0 0 0 0 0 0 0 -3 -6 -1 -1 0 0 -9 -10 -8 -6 -5 -4 -4 -10 -10 -45 -94 -140 -36 0 -65 -38 -3 0 0 -28
-38 -64 -43 -12 -2 -1 0 0 0 0 0 0 0 0 0 0 0 -3 -5 -2 -3 0 -4 0 -5 -6 -18 -33 -16 -3 -3 -11 -46 -76 -113 -207 -171 -111 -83 -50 -1 0 -1
-67 -76 -47 -39 -10 -6 -9 0 0 0 0 0 0 0 0 -6 -9 -1 -17 -15 0 0 -5 -3 -7 -35 -86 -93 -78 -38 -46 -48 -47 -69 -91 -120 -145 -151 -115 -56 -5 -6 0
-136 -97 -86 -53 -39 -37 -22 -3 -6 -2 -3 -2 -6 -2 -6 -30 -45 -31 -34 -22 -2 -5 -9 -27 -55 -75 -105 -147 -177 -120 -100 -81 -66 -59 -91 -69 -63 -73 -49 -5 0 -1 -3
-99 -127 -123 -75 -59 -65 -47 -10 -22 -18 -15 -31 -30 -26 -33 -58 -57 -41 -45 -27 -23 -37 -68 -70 -113 -101 -27 0 0 0 -116 -83 -103 -96 -82 -119 -84 -44 -14 0 -2 -2 -2
0 -160 -163 -116 -95 -81 -43 -22 -38 -51 -48 -80 -58 -59 -56 -52 -53 -53 -50 -43 -66 -73 -81 -106 -118 -111 0 -74 0 -149 -142 -40 -105 -133 -160 -94 -61 -46 -32 0 -1 0 0
0 0 -234 -176 -149 -92 -55 -57 -74 -93 -100 -112 -99 -76 -78 -59 -53 -55 -45 -46 -72 -94 -97 -105 -85 -112 0 0 0 0 -160 -166 -61 -118 -141 -160 -66 -39 -46 -2 0 -4 -5
0 0 -271 -204 -176 -84 -62 -106 -113 -116 -101 -88 -75 -64 -69 -61 -53 -88 -100 -67 -83 -113 -109 -107 -158 -193 -160 0 -268 -18 -202 -144 -123 -128 -151 -156 -80 -37 -50 -24 -1 -2 -5
-262 -211 -214 -147 -154 -92 -50 -87 -74 -77 -70 -60 -57 -68 -52 -64 -40 -155 0 -177 -131 -135 -136 -129 -167 -151 -246 -287 -235 -235 -183 -148 -128 -118 -138 -144 -157 -55 -51 -27 -11 -8 -8
-194 -183 -147 -112 -147 -87 -54 -70 -65 -56 -50 -53 -65 -63 -52 -54 0 -117 -124 -69 -82 -153 -129 -132 -146 -158 -159 -170 -197 -174 -176 -85 -198 -107 -116 -135 -155 -123 -73 -43 -25 -14 -11
-256 -192 -113 -95 -151 -93 -73 -61 -62 -58 -75 -68 -72 -64 -49 -59 0 -98 -107 -63 -73 -101 -121 -123 -125 -13 -144 -153 -175 -192 -182 -161 -195 -166 -107 -119 -175 -171 -157 -102 -73 -53 -24
-354 -228 -117 -94 -107 -97 -80 -72 -78 -63 -63 -74 -74 -63 -56 -62 0 -80 -77 -48 -61 -74 -76 -91 -91 -164 -124 -143 -132 -134 -165 -152 -151 -218 -182 -164 -173 -144 -127 -115 -131 -91 -56
-350 -295 -152 -108 -93 -91 -94 -84 -91 -92 -79 -71 -91 -71 -118 0 0 -111 -83 -64 -54 -51 -86 -81 -62 -67 -101 -152 -149 -1 -164 -174 -147 -211 -234 -183 -163 -159 -155 -126 -115 -123 -117
-251 -274 -209 -133 -84 -110 -105 -96 -71 -66 -81 -63 -71 -62 -63 -118 0 -105 -36 -55 -43 -59 -92 -78 -52 -46 -92 -170 -89 -63 0 0 0 -141 0 -197 -159 -156 -136 -129 -110 -109 -135
-281 -258 -218 -153 -106 -101 -104 -96 -92 -71 -57 -73 -74 -64 -72 -104 -24 0 -71 -59 -45 -50 -78 -83 -48 -49 -51 -88 -123 -79 -23 -52 -99 0 -154 -153 -131 -153 -136 -130 -102 -110 -129
-307 -282 -232 -172 -138 -114 -102 -83 -86 -100 -84 -68 -56 -50 -48 -63 -82 -75 -64 -56 -63 -59 -43 -41 -58 -61 -65 -53 -77 -82 -104 -95 -44 -33 -80 -105 -118 -101 -95 -112 -113 -121 -124
-322 -273 -271 -229 -187 -143 -114 -89 -95 -101 -104 -70 -49 -51 -46 -41 -65 -68 -37 -33 -30 -59 -48 -38 -53 -70 -66 -57 -82 -51 -60 -84 -105 -58 -1 0 -11 -127 -168 -129 -115 -135 -116
-344 -298 -279 -286 -222 -190 -152 -114 -96 -120 -107 -90 -73 -71 -71 -51 -45 -58 -52 -43 -39 -23 -50 -55 -84 -84 0 -75 -69 -64 -53 -39 -46 -53 -78 -75 -80 -78 -117 -146 -143 -131 -138
Wind_Speed
24 25 26 26 25 26 25 25 25 26 26 25 25 24 23 25 26 26 25 23 20 17 16 15 13 13 9 9 12 12 11 19 25 27 27 27 24 26 23 19 16 14 21
23 24 25 25 24 25 25 24 25 27 26 25 25 24 26 25 26 24 24 22 21 20 17 17 19 19 15 10 16 18 19 22 23 23 24 27 25 24 22 18 19 23 25
22 22 23 23 23 25 25 25 25 26 26 24 24 25 26 24 24 23 22 21 20 19 19 19 19 19 18 15 14 15 15 20 21 23 20 25 26 20 21 24 24 23 25
21 20 21 23 23 23 25 24 25 25 24 23 22 24 24 23 22 21 21 20 19 19 19 19 18 20 16 8 8 15 19 20 20 24 19 21 24 25 26 26 22 21 23
20 18 18 21 22 22 23 24 25 24 22 22 23 22 22 22 21 21 20 19 19 20 21 21 21 20 21 22 22 22 22 21 21 16 10 13 21 25 25 26 21 21 20
19 19 19 19 21 22 22 23 24 23 21 21 22 23 22 21 21 21 20 20 21 22 22 21 19 18 19 21 21 20 19 20 22 23 25 25 21 22 22 25 25 22 20
18 17 15 17 20 25 20 21 23 22 21 20 20 22 21 21 21 20 20 21 21 20 21 20 18 17 16 16 17 18 18 20 20 23 24 25 25 25 23 23 24 24 20
19 17 14 12 12 18 21 20 23 22 22 21 21 21 20 22 21 21 20 21 21 21 20 18 16 15 15 15 16 16 17 18 20 22 23 24 24 27 26 24 24 23 20
17 16 11 8 9 12 12 15 23 23 23 22 22 22 22 22 22 21 21 21 21 20 20 19 17 15 14 13 14 15 16 17 19 21 22 21 26 28 26 25 24 23 22
16 15 12 6 5 6 3 18 25 25 24 22 23 22 22 22 22 21 21 20 20 20 19 17 15 12 12 12 12 12 15 17 19 21 22 23 26 27 25 24 25 24 24
19 18 22 7 18 17 20 24 27 26 25 23 23 23 22 23 22 21 21 21 20 19 16 12 13 13 13 13 13 12 13 16 17 19 21 22 24 24 25 25 25 25 24
23 26 29 32 29 25 24 25 27 27 26 24 24 23 23 22 22 21 21 20 19 18 15 17 15 13 13 14 15 14 13 15 18 18 20 21 22 23 24 25 25 24 24
24 29 32 32 32 30 28 26 27 27 27 25 23 23 23 22 21 20 20 18 17 19 17 15 13 14 16 17 15 14 14 16 17 18 18 21 21 22 23 24 24 24 24
28 30 32 32 30 30 28 28 28 28 27 26 26 24 23 22 21 20 19 19 18 17 16 13 12 15 14 13 15 16 16 16 18 18 19 20 20 21 22 23 23 23 23
32 29 30 29 29 29 28 28 29 29 28 26 27 25 24 22 21 19 19 18 17 16 16 16 15 12 13 13 15 18 18 18 19 19 19 20 21 22 23 22 22 22 22
29 30 30 29 28 27 27 26 26 27 28 27 26 25 25 22 20 19 19 18 16 17 15 19 12 12 17 14 15 16 18 18 19 19 20 19 20 22 22 22 22 21 21
27 26 26 26 26 26 26 24 24 23 24 27 26 24 23 23 21 20 19 19 17 17 16 18 18 16 16 17 17 18 18 18 18 18 20 20 20 20 21 21 21 21 21
23 24 23 19 24 25 22 20 19 21 20 22 27 25 24 22 19 18 17 16 17 16 16 18 18 17 16 17 17 18 17 15 17 17 20 19 19 20 20 20 19 20 20
22 21 21 19 16 19 20 18 21 25 17 18 20 23 23 22 16 13 13 11 15 18 16 17 17 17 17 18 17 16 16 18 17 18 20 19 18 18 19 19 19 19 19
21 20 19 15 14 16 13 11 19 23 19 12 12 17 24 22 11 7 7 9 11 15 17 18 16 16 17 19 17 16 18 18 17 20 19 19 18 19 18 18 19 18 19
21 20 21 17 13 13 9 10 13 15 7 3 12 9 14 11 3 2 4 6 8 9 19 17 17 18 17 20 19 17 17 18 18 19 18 18 18 18 18 17 17 17 17
20 20 22 25 23 21 15 9 4 12 10 3 6 5 19 19 4 1 5 5 9 8 10 11 13 14 16 17 16 17 17 16 17 18 18 18 17 16 17 17 16 16 15
21 19 22 25 25 22 15 11 9 8 14 9 9 6 9 10 1 3 8 8 7 10 11 11 12 10 12 13 16 15 16 17 17 17 17 16 17 16 16 15 13 15 14
20 18 19 22 23 22 19 17 9 6 6 4 4 3 2 6 3 3 2 8 8 10 10 12 13 13 10 10 12 13 12 13 15 17 16 14 14 15 17 16 13 13 13
19 18 17 19 19 20 21 18 18 12 7 4 7 5 4 4 8 3 5 5 6 10 10 9 10 10 13 13 13 12 12 13 12 12 13 16 17 18 11 13 12 13 9
17 17 16 17 20 17 19 19 20 16 11 7 6 9 14 8 5 4 3 3 4 7 11 11 12 14 16 14 12 13 10 10 11 12 10 12 14 16 17 13 6 10 11
Wind_Direction
128 125 125 123 117 114 105 100 100 102 100 93 92 91 89 95 97 98 99 91 74 54 40 33 15 20 343 360 27 32 39 75 100 105 102 98 88 95 84 74 64 59 74
117 121 120 119 116 116 110 103 104 107 109 103 99 97 105 103 109 104 101 91 83 74 50 54 73 75 42 10 57 71 77 94 97 102 104 113 99 100 91 77 76 84 92
117 118 117 116 113 118 116 112 109 112 112 106 105 110 112 106 109 103 99 88 90 90 87 75 72 85 86 64 61 69 74 100 106 112 95 139 119 95 95 101 100 97 103
116 116 117 119 116 115 120 118 117 116 111 108 108 115 116 110 107 105 104 93 91 101 103 92 71 137 59 60 352 83 111 113 114 140 209 199 181 134 141 132 103 99 100
116 114 113 118 119 116 118 117 123 117 112 112 116 116 114 113 110 108 104 103 100 106 105 105 119 117 110 117 135 138 144 135 129 114 269 250 207 155 143 153 112 107 100
116 116 114 113 117 119 120 119 125 116 116 117 120 131 127 115 119 121 113 111 113 112 114 129 164 162 148 124 125 136 154 159 152 152 161 179 219 140 138 158 158 137 121
114 114 111 110 114 128 117 118 127 118 118 117 117 126 125 126 131 128 123 119 124 132 129 147 167 182 189 195 180 166 169 167 164 167 166 174 182 171 151 150 167 163 142
119 118 111 108 104 113 120 119 132 126 126 118 120 127 122 137 138 133 131 129 134 138 144 156 177 194 209 212 205 206 199 176 158 172 172 179 180 184 176 161 167 164 147
118 118 111 107 103 106 101 103 130 131 134 126 129 137 137 147 140 132 131 127 139 148 148 150 163 184 194 204 208 188 198 196 172 165 166 178 170 169 179 186 176 176 173
116 119 119 118 250 261 269 119 144 141 141 132 134 137 136 141 137 131 120 124 140 147 148 153 166 202 211 199 230 224 199 186 176 167 153 161 158 177 185 190 186 184 184
120 125 137 126 229 234 225 207 170 155 150 136 136 143 140 144 142 139 126 131 130 142 150 185 177 206 216 201 220 228 213 189 184 177 156 162 168 180 190 189 193 188 192
133 142 150 163 196 209 210 205 186 174 167 144 143 148 144 144 147 146 144 137 127 115 155 121 153 182 207 208 205 229 218 199 186 180 174 167 168 172 182 190 188 192 195
136 150 164 166 173 182 197 202 188 183 178 157 143 145 146 144 149 153 151 142 130 94 119 109 217 229 217 182 212 225 227 213 199 197 190 180 175 176 176 180 183 191 192
149 153 161 163 165 177 190 190 183 180 170 159 161 154 150 148 153 155 159 155 121 115 109 144 151 129 170 319 246 220 221 212 198 196 200 198 195 178 174 180 178 183 187
161 156 161 160 163 167 174 178 180 182 175 159 167 165 162 153 158 165 171 159 133 115 125 137 145 175 161 203 212 211 203 202 193 194 192 199 197 180 175 182 180 182 187
161 162 159 160 159 158 166 155 157 164 176 174 170 171 168 168 163 178 170 156 154 134 143 100 346 193 163 180 174 185 184 187 185 181 177 185 189 179 177 182 181 179 185
163 159 158 156 157 156 159 153 153 152 158 179 176 169 163 171 164 151 132 147 144 135 136 101 114 138 150 149 153 188 187 183 183 186 179 178 181 178 179 183 184 182 182
159 162 161 155 158 159 156 150 151 154 150 158 181 175 163 163 143 131 116 129 142 133 142 130 130 132 140 143 156 157 178 212 216 210 180 179 173 178 181 183 181 184 185
164 161 162 160 158 157 157 156 158 166 146 149 157 167 165 162 140 116 108 57 91 127 143 154 139 132 133 139 147 171 181 203 206 203 181 172 171 171 176 183 186 183 184
164 163 163 161 163 161 152 144 152 161 156 141 139 151 175 167 129 92 73 66 59 107 114 147 156 145 130 124 137 146 168 187 195 177 192 192 182 178 178 178 180 180 188
167 167 168 165 168 168 164 156 148 152 138 142 149 138 143 135 37 46 51 355 348 41 181 144 157 137 93 122 115 139 165 149 174 163 158 181 174 168 168 163 168 168 173
163 168 171 173 169 166 165 168 188 157 152 152 149 155 169 168 107 66 311 330 318 358 79 89 98 82 83 111 126 144 136 181 159 163 163 173 165 158 170 169 164 163 163
167 164 169 174 173 171 168 166 272 274 277 279 279 278 160 158 146 137 291 294 320 320 318 312 309 10 53 76 115 89 83 98 146 136 153 151 169 178 171 154 143 162 161
167 163 166 171 174 174 172 172 185 195 184 222 245 235 194 163 167 267 292 286 295 308 313 305 303 313 329 360 337 349 22 42 83 156 128 97 166 185 190 183 153 156 150
164 162 163 169 172 173 177 179 180 183 191 237 270 261 206 186 169 200 281 287 283 288 301 313 315 317 311 314 321 343 4 7 346 49 47 310 353 308 159 155 159 163 122
165 164 161 167 176 176 180 184 186 188 191 203 243 268 275 270 206 219 224 247 262 278 284 295 301 299 298 308 324 320 355 22 12 358 42 29 15 4 349 6 114 160 160